Regional Weather Roundup
Issued by NWS

Home | Current Version | Previous Version | Graphics & Text | Print | Product List | Glossary On
Versions: 1 2 3 4 5 6 7 8 9 10 11 12 13 14 15 16 17 18 19 20 21 22 23 24 25 26 27 28 29 30 31 32 33 34 35 36 37 38 39 40 41 42 43 44 45 46 47 48 49 50
000
ASUS45 KBOU 060007
RWRCO

WEATHER ROUNDUP FOR COLORADO
NATIONAL WEATHER SERVICE DENVER/BOULDER CO
500 PM MST THU MAR 05 2015

NOTE: "FAIR" INDICATES FEW OR NO CLOUDS BELOW 12000 FEET WITH NO
SIGNIFICANT WEATHER AND/OR OBSTRUCTIONS TO VISIBILITY.

COZ001>005-013-030-031-060100-
...NORTHWEST COLORADO...

CITY           SKY/WX    TMP DP  RH WIND       PRES   REMARKS
CRAIG          PTSUNNY   35  16  45 E7        30.34S WCI  29
HAYDEN         PTSUNNY   32  10  40 CALM      30.34R
MEEKER         SUNNY     41  17  38 S6        30.33R
MOUNT WERNER   NOT AVBL
STEAMBOAT SPGS PTSUNNY   32   8  36 CALM      30.34R
WALDEN         SUNNY     27  10  50 SW14      30.28R WCI  15
$$

COZ006>008-011-060100-
...WEST CENTRAL VALLEYS...

CITY           SKY/WX    TMP DP  RH WIND       PRES   REMARKS
GRAND JUNCTION SUNNY     44  15  31 VRB6      30.36F
MONTROSE       SUNNY     44  15  31 N5        30.37R
EAGLE          SUNNY     39  12  33 SW14      30.35R
RIFLE          SUNNY     43  12  28 W7        30.36R
DELTA          SUNNY     48  15  26 SW6       30.36S
NUCLA          SUNNY     43  14  31 CALM      30.39S
$$

COZ017>023-064>068-060100-
...SOUTHWEST COLORADO...

CITY           SKY/WX    TMP DP  RH WIND       PRES   REMARKS
DURANGO        SUNNY     37  18  46 NE9       30.31S
CORTEZ         SUNNY     44  22  41 W9        30.35R
PAGOSA SPRINGS SUNNY     39   5  24 S6        30.34R
TELLURIDE      SUNNY     32  -4  21 W14       30.37R WCI  22
WOLF CREEK PAS SUNNY     16   9  73 SW15      30.36R WCI   1
$$

COZ009-010-012-014-032>034-037-058>063-060100-
...CENTRAL COLORADO...

CITY           SKY/WX    TMP DP  RH WIND       PRES   REMARKS
ASPEN          MOSUNNY   33  11  39 NW5       30.33R WCI  29
BUENA VISTA    MOSUNNY   37   8  30 NW18      30.24R
COPPER MTN     MOSUNNY   21   5  49 W16       30.29R WCI   7
BERTHOUD PASS  NOT AVBL
COTTONWOOD PAS MOSUNNY   34  -6  18 W16G29    30.26R WCI  23
GUNNISON       SUNNY     25   5  42 N5        30.37S WCI  19
KREMMLING      MOSUNNY   30  10  43 E6        30.34R WCI  24
LEADVILLE      MOSUNNY   24   1  36 NW18G24   30.28R WCI  10
SALIDA         MOSUNNY   40   6  24 SW17      30.31R
SUNLIGHT       SUNNY     23  16  74 CALM        N/A
WILKERSON PASS MOSUNNY   25   1  36 NW7G20    30.26S WCI  17
$$

COZ069>075-060100-
...SAN LUIS VALLEY/SANGRE DE CRISTO MOUNTAINS...

CITY           SKY/WX    TMP DP  RH WIND       PRES   REMARKS
ALAMOSA        MOSUNNY   33  14  45 W8        30.30R WCI  26
LA VETA PASS   SUNNY     27   1  33 S12G26    30.25R WCI  16
SAGUACHE       SUNNY     32  10  40 SE5       30.31R WCI  27
$$

COZ035-036-038>040-060100-
...NORTHERN COLORADO FRONT RANGE...

CITY           SKY/WX    TMP DP  RH WIND       PRES   REMARKS
DENVER INTL AP MOCLDY    32  20  61 W6        30.21R WCI  26
DMNS CITY PARK   N/A     33  14  45 NW2       30.21S
AURORA         MOCLDY    32  22  65 N5        30.22R WCI  27
FRONT RANGE AP MOCLDY    36  25  64 NW6       30.22R
ERIE MUNI ARPT PTCLDY    29  13  50 CALM      30.23S
BOULDER MUN AP PTCLDY    32  10  40 NW3       30.22S
CENTENNIAL     MOCLDY    35  22  58 N9        30.20R WCI  28
BROOMFIELD     NOT AVBL
FORT COLLINS   CLEAR     34  16  47 CALM      30.25R
LONGMONT       CLEAR     32  14  46 W3        30.25S
$$

COZ041-046-047-076>085-087-088-060100-
...PIKES PEAK/PALMER DIVIDE AND SOUTHERN FOOTHILLS...

CITY           SKY/WX    TMP DP  RH WIND       PRES   REMARKS
COLO. SPRINGS  PTCLDY    33  15  47 S5        30.23R WCI  29
A. F. ACADEMY  CLEAR     36  15  42 S9        30.20R
ELLICOTT       NOT AVBL
FALCON         CLEAR     33  17  51 CALM      30.22R
FORT CARSON    CLEAR     36  16  43 CALM      30.22R
LIMON          PTCLDY    28  20  71 SE5       30.22S WCI  23
MONUMENT HILL  CLEAR     36  12  38 SW5       30.20R
TRINIDAD       PTCLDY    46  17  31 SE5       30.20S
$$

COZ042>045-048>051-090-091-060100-
...NORTHEAST COLORADO...

CITY           SKY/WX    TMP DP  RH WIND       PRES   REMARKS
GREELEY ARPT   CLEAR     37  19  48 W8        30.21S
AKRON          PTCLDY    43   5  20 SW3       30.21R
BURLINGTON     PTCLDY    40  15  36 SW12      30.25R
WRAY           PTCLDY    44  14  29 W7        30.23S
STERLING       PTCLDY    45  19  36 N10       30.21S
HOLYOKE        PTCLDY    46  12  25 W15       30.21S
FORT MORGAN    PTCLDY    44   5  20 SE5       30.22S
$$

COZ086-089-092>099-060100-
...SOUTHEAST COLORADO...

CITY           SKY/WX    TMP DP  RH WIND       PRES   REMARKS
PUEBLO         CLEAR     45  20  36 E6        30.21R
LA JUNTA       PTCLDY    44  22  41 E9        30.22R
LAMAR          CLEAR     47  12  24 S10       30.23S
SPRINGFIELD      N/A     41  17  38 S13       30.25S
$$


USA.gov is the U.S. government's official web portal to all federal, state and local government web resources and services.